Погода в Киршине

Россия / Псковская область     58°00′46″N   27°43′41″E
темп.,
°C
ветер,
м/с
пор.,
м/с
влажн.,
%
обл.,
%
осадки,
мм/ч
давл.,
гПа
погр.,
м
12 мая, ср
ср1200:00+10ююв47835 0.0 102292
03:00+9юв45850 0.0 102261
06:00+8юв46870 0.0 102280
09:00+11юв45825 0.0 1022159
12:00+14юв56760 0.0 1022391
15:00+16юв566815 0.0 1020730
18:00+15вюв5773100 0.0 1019227
21:00+13ююв22830 0.0 101811
13 мая, чт
чт1300:00+12св33895 0.0 101715
03:00+11св358887 0.0 101571
06:00+11в51093100 0.0 1013230
09:00+11юв7108524 0.1 1013385
12:00+12юв586824 0.0 1013665
15:00+13юв68585 0.0 1012790
18:00+13ююв565899 0.0 1011672
21:00+12в3471100 0.0 101139
14 мая, пт
пт1400:00+10юв4585100 0.0 101088
03:00+8юв35920 0.0 101173
06:00+7юв48915 0.0 1010147
09:00+9юв5784100 0.0 1010251
12:00+11юв698179 0.4 1010367
15:00+12ююв5882100 0.4 1010356
18:00+12вюв5782100 0.1 1009369
21:00+11вюв4886100 0.2 1008235
15 мая, сб
сб1500:00+10в469842 0.3 100794
03:00+9вюв339951 0.3 100740
06:00+9вюв2399100 0.0 100636
09:00+10юв229498 0.0 1006146
12:00+12всв228496 0.0 1005422
15:00+12вюв028681 0.7 1005371
18:00+14з348645 1.6 1004153
21:00+12зюз469393 2.9 100599
16 мая, вс
вс1600:00+11з4696100 0.0 100689
03:00+9з469711 0.0 1008119
06:00+8з489327 0.0 1009157
09:00+10з458225 0.0 1011209
12:00+13зюз236935 0.0 1011465
15:00+14ююв13616 0.0 1011653
18:00+14вюв126260 0.0 1011659
21:00+13ююв2271100 0.0 101211